GPS BIIR-3 (PRN 11)

Last updated on Mon Nov 09 2020 06:27:25 GMT+0000 (Coordinated Universal Time)

1 25933U 99055A 20312.83476878 -.00000076 00000-0 00000-0 0 9993 2 25933 52.3562 23.8367 0154861 118.6729 39.7491 2.00557220154517
UTC large
Height (km)
Speed (km/s)
/
Latitude / Longitude
Inclination (degrees)
Orbital Period (minutes)
Azimuth
Elevation
Range (km)
Doppler Factor

Next 0 passes for location: London (51.5072 / 0.1276)

Sorry there are no passes over London.
GPS BIIR-3 (PRN 11)